map of JVL home
JVL - Airport
Location
City:  Janesville, Wisconsin, United States
Name:Southern Wisconsin Regional
ICAO:KJVL
IATA:JVL
FAA LID:JVL

Details
Type:Airport (Part 139 Class IV)
Use:Public/Civil
Latitude:4237'13"N (42.620250)
Longitude:8902'30"W (-89.041555)
Datum:WGS 1984
Elevation:807 ft (246 m)
Variation:2.97W (WMM2015 magnetic declination)
-0.06 annual change
Runways:3
Longest:7302 × 150 ft (2226 × 45.5 m), paved

Time
Time Zone:UTC-6 (DST-5)
Local Time:

Weather
METAR:KJVL 200435Z AUTO 17005KT 10SM OVC065 17/17 A3000 RMK AO2

Related Locations
Nearby:
Farthest:YAUG: 11016 mi / 17728 km
Augusta [Augusta Airport], WA, AU

Find:

   beyond  
but within

Other Information
Maps:
NOTAMs:
Links:
Sources:

  
  • flag of United States
  • flag of Wisconsin
  

Airport Diagram

Airport diagram for JVL

Airport diagram PDF

Sectional Chart

Flight Planning
at skyvector.com

Satellite Image

Google Maps Satellite view

 

Copyright © 2004-2018 Karl L. Swartz. All rights reserved.
The Great Circle Mapper name and logo are trademarks of the Great Circle Mapper.
All other trademarks mentioned herein belong to their respective owners.
Please see credits for attibutions and further copyright information.

  Follow gcmap on Facebook Follow gcmap on Twitter Follow gcmap on Google+ GCmap on LinkedIn

hCard Microformat

Geo Microformat